QPF
0.00 0.00 0.00 0.00 0.00 0.00 0.00 0.00 0.00 0.00 0.01 0.03 0.02 0.00 0.00 0.00 0.00 0.00 0.00 0.00 0.00 0.00 0.00 0.00 0.00 0.00 0.02 0.00 0.00 0.00 0.00 0.00 0.00 0.00 0.00 0.00 0.00 0.00 0.00 0.00 0.00 0.01 0.03 0.00
0.00 0.00 0.00 0.00 0.00 0.00 0.00 0.00 0.00 0.00 0.00 0.01 0.01 0.00 0.00 0.00 0.00 0.00 0.00 0.00 0.00 0.00 0.00 0.00 0.00 0.00 0.01 0.00 0.00 0.00 0.00 0.00 0.02 0.02 0.04 0.02 0.01 0.00 0.00 0.00 0.00 0.00 0.01 0.00
0.00 0.00 0.00 0.00 0.00 0.00 0.00 0.00 0.00 0.02 0.01 0.00 0.00 0.00 0.00 0.00 0.00 0.00 0.00 0.00 0.00 0.00 0.00 0.00 0.00 0.00 0.01 0.00 0.00 0.00 0.00 0.00 0.02 0.02 0.03 0.02 0.00 0.00 0.00 0.00 0.01 0.01 0.01 0.00
0.00 0.00 0.00 0.00 0.00 0.00 0.00 0.00 0.00 0.00 0.01 0.00 0.00 0.00 0.00 0.00 0.00 0.00 0.00 0.00 0.00 0.00 0.00 0.00 0.00 0.00 0.00 0.00 0.00 0.00 0.00 0.00 0.00 0.00 0.00 0.00 0.00 0.00 0.00 0.00 0.00 0.00 0.00 0.00
0.00 0.00 0.00 0.00 0.00 0.00 0.00 0.00 0.00 0.00 0.00 0.00 0.00 0.00 0.00 0.00 0.00 0.00 0.00 0.00 0.00 0.00 0.00 0.00 0.00 0.00 0.00 0.00 0.00 0.00 0.00 0.00 0.00 0.00 0.00 0.00 0.00 0.00 0.00 0.00 0.00 0.00 0.00 0.00
0.00 0.00 0.00 0.00 0.00 0.00 0.00 0.00 0.00 0.00 0.00 0.00 0.00 0.00 0.00 0.00 0.00 0.00 0.00 0.00 0.00 0.00 0.00 0.00 0.00 0.00 0.00 0.00 0.00 0.00 0.00 0.01 0.01 0.00 0.00 0.00 0.00 0.00 0.00 0.00 0.00 0.00 0.00 0.00
0.00 0.00 0.00 0.00 0.00 0.00 0.00 0.00 0.00 0.00 0.00 0.00 0.00 0.00 0.00 0.00 0.00 0.00 0.00 0.00 0.00 0.00 0.00 0.00 0.00 0.00 0.00 0.00 0.00 0.00 0.00 0.01 0.01 0.00 0.00 0.00 0.00 0.00 0.00 0.00 0.00 0.00 0.00 0.00
0.00 0.00 0.00 0.00 0.00 0.00 0.02 0.03 0.00 0.00 0.00 0.00 0.00 0.00 0.00 0.00 0.00 0.00 0.00 0.00 0.00 0.00 0.00 0.00 0.00 0.00 0.00 0.00 0.00 0.00 0.00 0.01 0.00 0.00 0.00 0.00 0.00 0.00 0.00 0.00 0.00 0.00 0.00 0.00
0.00 0.00 0.00 0.00 0.00 0.00 0.02 0.04 0.03 0.01 0.00 0.00 0.00 0.00 0.00 0.00 0.00 0.00 0.00 0.00 0.00 0.00 0.01 0.02 0.01 0.00 0.00 0.00 0.00 0.00 0.00 0.01 0.00 0.01 0.01 0.00 0.00 0.00 0.00 0.00 0.00 0.00 0.00 0.00
0.00 0.00 0.00 0.00 0.00 0.00 0.00 0.02 0.03 0.05 0.01 0.00 0.00 0.00 0.00 0.00 0.00 0.01 0.02 0.03 0.01 0.03 0.04 0.03 0.01 0.00 0.00 0.00 0.01 0.00 0.00 0.00 0.00 0.00 0.01 0.00 0.00 0.00 0.00 0.00 0.00 0.00 0.00 0.00
0.00 0.00 0.00 0.00 0.00 0.00 0.00 0.00 0.02 0.02 0.03 0.00 0.00 0.00 0.00 0.01 0.01 0.03 0.02 0.05 0.03 0.04 0.04 0.02 0.01 0.00 0.00 0.00 0.00 0.00 0.00 0.00 0.00 0.00 0.01 0.00 0.00 0.00 0.00 0.00 0.00 0.00 0.00 0.00
0.00 0.00 0.00 0.00 0.00 0.01 0.00 0.00 0.01 0.01 0.02 0.01 0.00 0.00 0.00 0.00 0.01 0.04 0.07 0.03 0.01 0.01 0.02 0.02 0.01 0.00 0.00 0.00 0.00 0.00 0.00 0.00 0.00 0.00 0.00 0.00 0.00 0.00 0.00 0.00 0.00 0.00 0.00 0.00
0.00 0.00 0.00 0.00 0.00 0.00 0.00 0.01 0.03 0.02 0.00 0.00 0.00 0.00 0.00 0.00 0.00 0.00 0.03 0.05 0.05 0.04 0.03 0.04 0.03 0.01 0.00 0.01 0.00 0.00 0.00 0.00 0.00 0.00 0.00 0.00 0.00 0.00 0.00 0.00 0.00 0.00 0.00 0.00
0.01 0.01 0.02 0.01 0.00 0.01 0.00 0.01 0.04 0.04 0.01 0.00 0.00 0.00 0.00 0.00 0.00 0.00 0.00 0.02 0.03 0.04 0.04 0.05 0.02 0.01 0.00 0.00 0.01 0.00 0.00 0.00 0.00 0.00 0.00 0.00 0.00 0.00 0.00 0.00 0.00 0.00 0.00 0.00
0.02 0.02 0.03 0.03 0.02 0.01 0.01 0.01 0.03 0.05 0.01 0.01 0.00 0.00 0.00 0.00 0.00 0.00 0.00 0.01 0.01 0.05 0.05 0.04 0.02 0.02 0.03 0.01 0.01 0.00 0.00 0.01 0.02 0.00 0.00 0.00 0.00 0.00 0.00 0.00 0.00 0.00 0.00 0.00
0.03 0.02 0.03 0.03 0.03 0.03 0.04 0.04 0.01 0.04 0.10 0.02 0.00 0.00 0.00 0.00 0.00 0.00 0.00 0.00 0.01 0.03 0.05 0.04 0.02 0.01 0.01 0.02 0.00 0.00 0.00 0.00 0.00 0.00 0.00 0.00 0.00 0.00 0.00 0.00 0.00 0.00 0.00 0.00
0.04 0.04 0.03 0.02 0.03 0.03 0.01 0.01 0.00 0.02 0.08 0.01 0.00 0.00 0.00 0.00 0.00 0.01 0.00 0.00 0.00 0.01 0.02 0.01 0.01 0.01 0.01 0.01 0.00 0.00 0.00 0.00 0.00 0.00 0.00 0.00 0.00 0.00 0.00 0.00 0.00 0.00 0.00 0.00
0.03 0.04 0.04 0.03 0.06 0.06 0.03 0.02 0.03 0.03 0.02 0.01 0.00 0.00 0.00 0.00 0.01 0.01 0.00 0.00 0.00 0.00 0.01 0.00 0.00 0.00 0.01 0.01 0.00 0.00 0.00 0.00 0.00 0.00 0.00 0.00 0.00 0.00 0.00 0.00 0.00 0.00 0.00 0.00
0.04 0.05 0.11 0.15 0.13 0.04 0.00 0.02 0.08 0.10 0.03 0.00 0.01 0.00 0.00 0.00 0.00 0.01 0.01 0.01 0.01 0.00 0.00 0.00 0.00 0.00 0.00 0.00 0.00 0.00 0.00 0.00 0.00 0.00 0.00 0.00 0.00 0.00 0.00 0.00 0.00 0.00 0.00 0.00
0.11 0.16 0.13 0.06 0.02 0.01 0.04 0.07 0.08 0.07 0.04 0.04 0.01 0.00 0.02 0.00 0.00 0.01 0.00 0.01 0.01 0.01 0.00 0.00 0.00 0.00 0.00 0.00 0.00 0.00 0.00 0.00 0.00 0.00 0.00 0.00 0.00 0.00 0.00 0.00 0.00 0.00 0.00 0.00
0.16 0.06 0.02 0.03 0.02 0.07 0.05 0.02 0.01 0.01 0.01 0.01 0.00 0.01 0.01 0.00 0.00 0.00 0.00 0.01 0.01 0.01 0.00 0.00 0.00 0.00 0.00 0.00 0.00 0.00 0.00 0.00 0.00 0.00 0.00 0.00 0.00 0.00 0.00 0.00 0.00 0.00 0.00 0.00
0.02 0.01 0.05 0.08 0.07 0.02 0.03 0.01 0.01 0.00 0.01 0.00 0.00 0.00 0.01 0.01 0.01 0.00 0.00 0.01 0.01 0.00 0.01 0.01 0.00 0.00 0.00 0.00 0.00 0.00 0.00 0.00 0.00 0.00 0.00 0.00 0.00 0.00 0.00 0.00 0.00 0.00 0.00 0.00
0.04 0.08 0.07 0.03 0.01 0.01 0.02 0.01 0.02 0.00 0.00 0.00 0.00 0.03 0.03 0.03 0.04 0.04 0.01 0.02 0.01 0.01 0.01 0.00 0.00 0.00 0.00 0.00 0.00 0.00 0.00 0.00 0.00 0.00 0.00 0.00 0.00 0.00 0.00 0.00 0.00 0.00 0.00 0.00
0.04 0.04 0.02 0.01 0.01 0.01 0.01 0.00 0.00 0.00 0.00 0.00 0.00 0.01 0.01 0.01 0.04 0.03 0.02 0.01 0.02 0.01 0.00 0.00 0.00 0.00 0.00 0.00 0.00 0.00 0.00 0.00 0.00 0.00 0.00 0.00 0.00 0.00 0.00 0.00 0.00 0.00 0.00 0.00
0.02 0.03 0.02 0.00 0.01 0.00 0.00 0.00 0.00 0.00 0.00 0.00 0.02 0.01 0.02 0.03 0.02 0.03 0.03 0.03 0.02 0.00 0.00 0.00 0.00 0.00 0.00 0.00 0.00 0.00 0.00 0.00 0.00 0.00 0.00 0.00 0.00 0.00 0.00 0.00 0.00 0.00 0.00 0.00
0.00 0.01 0.00 0.01 0.04 0.02 0.01 0.01 0.00 0.00 0.00 0.03 0.04 0.01 0.02 0.02 0.03 0.02 0.02 0.02 0.00 0.00 0.00 0.00 0.00 0.00 0.00 0.00 0.00 0.00 0.00 0.00 0.00 0.00 0.00 0.00 0.00 0.00 0.00 0.00 0.00 0.00 0.00 0.00
0.00 0.01 0.02 0.02 0.03 0.03 0.01 0.01 0.00 0.00 0.03 0.03 0.04 0.04 0.03 0.02 0.03 0.01 0.00 0.00 0.00 0.00 0.00 0.00 0.00 0.00 0.00 0.00 0.00 0.00 0.00 0.00 0.00 0.00 0.00 0.00 0.00 0.00 0.00 0.00 0.00 0.00 0.00 0.00
MSLP
1014.46 1015.25 1016.10 1016.62 1017.15 1017.77 1018.50 1017.12 1016.52 1016.44 1016.96 1017.80 1017.04 1016.19 1015.27 1015.41 1014.48 1014.61 1014.21 1014.15 1013.55 1012.58 1011.96 1011.23 1010.57 1011.12 1012.51 1012.57 1011.77 1010.75 1011.25 1011.11 1010.61 1010.39 1010.51 1010.68 1010.70 1010.88 1011.31 1012.29 1013.20 1013.74 1013.87 1013.20
1014.16 1014.98 1015.95 1016.48 1017.09 1017.37 1016.94 1016.24 1015.98 1016.53 1016.62 1015.81 1015.96 1015.58 1014.72 1014.69 1014.15 1014.38 1014.49 1014.52 1014.02 1013.68 1013.32 1012.63 1012.01 1012.17 1013.07 1012.94 1012.55 1012.73 1012.64 1012.35 1012.03 1011.45 1011.84 1011.79 1011.60 1011.60 1012.03 1012.71 1013.63 1014.21 1014.08 1012.90
1013.75 1014.76 1015.62 1016.44 1016.72 1016.68 1017.18 1015.51 1015.59 1016.49 1016.36 1015.41 1014.91 1015.05 1014.27 1014.18 1014.12 1014.13 1014.54 1014.24 1014.19 1014.25 1013.85 1013.53 1013.13 1013.02 1013.51 1013.36 1013.27 1013.59 1013.76 1013.32 1013.20 1013.17 1013.06 1013.70 1013.19 1012.79 1012.75 1012.80 1013.37 1013.78 1013.53 1012.74
1013.41 1014.40 1015.36 1016.23 1016.57 1016.95 1017.73 1015.36 1013.96 1014.74 1015.32 1015.11 1014.82 1014.18 1013.77 1013.83 1014.10 1014.39 1014.08 1013.73 1013.65 1013.41 1013.37 1013.67 1013.26 1013.27 1013.39 1013.59 1013.86 1013.89 1014.14 1014.06 1014.05 1013.89 1013.72 1013.94 1013.45 1012.92 1012.74 1012.64 1012.68 1012.76 1012.69 1012.19
1013.18 1013.90 1014.46 1015.46 1016.12 1017.05 1017.39 1015.25 1014.21 1013.99 1014.26 1014.75 1014.42 1013.72 1013.14 1012.94 1013.57 1013.93 1013.76 1013.52 1013.36 1013.34 1013.10 1013.17 1013.53 1013.53 1013.57 1013.97 1014.28 1014.16 1014.36 1014.80 1014.99 1014.99 1014.83 1014.38 1013.28 1012.47 1011.98 1011.79 1011.79 1011.84 1011.94 1011.69
1012.49 1013.73 1014.58 1015.63 1016.25 1017.41 1015.94 1015.02 1014.42 1014.21 1014.21 1014.07 1013.88 1013.16 1012.80 1012.67 1012.82 1013.30 1013.40 1013.49 1013.59 1013.12 1013.16 1013.33 1013.99 1014.12 1014.02 1013.98 1014.04 1014.53 1015.07 1015.64 1015.93 1015.73 1015.25 1014.04 1012.63 1011.67 1011.28 1010.91 1010.99 1010.93 1011.23 1011.95
1012.31 1013.31 1014.46 1015.21 1015.99 1016.66 1015.36 1014.98 1015.08 1014.59 1013.91 1013.49 1013.13 1012.95 1012.84 1012.43 1012.26 1012.62 1013.31 1013.52 1013.70 1013.51 1013.81 1014.15 1014.40 1014.39 1014.39 1014.25 1014.43 1014.82 1015.38 1016.28 1016.96 1016.82 1016.15 1014.52 1012.33 1011.34 1010.73 1010.73 1010.61 1010.75 1011.27 1012.59
1012.20 1013.30 1014.08 1014.99 1015.77 1016.31 1016.07 1015.17 1015.38 1014.75 1013.92 1013.35 1012.56 1012.83 1012.66 1012.62 1012.49 1012.62 1013.11 1013.70 1014.12 1014.31 1014.66 1015.38 1015.07 1014.79 1014.63 1014.26 1014.44 1014.79 1015.48 1016.65 1017.88 1017.74 1016.23 1014.11 1012.25 1010.95 1010.69 1010.72 1010.95 1011.41 1012.36 1013.62
1012.02 1013.02 1013.83 1014.70 1015.59 1016.22 1016.92 1016.33 1016.17 1015.38 1014.66 1013.35 1012.65 1012.25 1012.22 1012.32 1012.62 1012.86 1013.01 1013.90 1014.31 1014.64 1014.83 1015.35 1015.16 1014.55 1014.08 1013.43 1013.72 1014.96 1016.03 1016.92 1018.07 1018.31 1016.81 1014.41 1011.67 1011.29 1011.33 1011.52 1012.06 1012.88 1013.89 1014.74
1011.88 1012.73 1013.66 1014.53 1015.40 1016.21 1016.59 1016.48 1016.70 1016.58 1015.36 1013.95 1013.50 1013.20 1012.58 1012.41 1012.55 1013.07 1013.73 1014.15 1014.95 1014.94 1015.23 1015.47 1015.35 1014.64 1013.38 1013.19 1013.86 1015.12 1016.31 1017.43 1017.72 1017.78 1016.61 1014.52 1012.33 1011.67 1011.97 1012.50 1013.31 1013.76 1014.43 1015.14
1011.71 1012.54 1013.57 1014.44 1015.32 1015.85 1016.47 1016.58 1016.92 1017.24 1016.22 1015.18 1014.67 1014.54 1014.66 1014.06 1012.98 1013.56 1013.89 1014.80 1015.19 1015.39 1015.65 1015.41 1015.00 1014.34 1013.36 1013.00 1012.83 1014.01 1014.95 1016.02 1016.55 1017.05 1016.17 1014.34 1012.44 1011.95 1012.58 1013.13 1013.66 1014.11 1014.77 1015.42
1011.65 1012.55 1013.53 1014.46 1015.09 1015.75 1016.36 1016.73 1016.99 1017.68 1017.70 1017.81 1016.70 1016.18 1016.20 1016.15 1016.13 1015.82 1014.30 1014.00 1014.42 1014.70 1015.28 1014.93 1014.67 1014.14 1013.27 1012.77 1012.45 1012.43 1013.24 1013.36 1013.76 1014.15 1013.61 1012.57 1012.00 1011.96 1012.62 1013.28 1013.96 1014.44 1014.89 1015.83
1011.65 1012.61 1013.60 1014.45 1014.89 1015.57 1016.24 1016.77 1017.38 1017.95 1018.89 1018.30 1017.72 1016.44 1016.40 1016.63 1016.55 1016.41 1016.04 1014.88 1015.02 1014.31 1013.92 1014.61 1014.33 1013.77 1013.00 1012.47 1012.16 1011.88 1011.48 1011.42 1012.07 1012.37 1011.98 1011.65 1011.75 1012.00 1012.30 1012.63 1013.47 1014.44 1015.29 1016.20
1011.58 1012.61 1013.52 1014.26 1014.94 1015.46 1016.03 1016.51 1017.53 1017.88 1018.75 1019.02 1018.18 1017.26 1016.98 1016.75 1016.82 1016.79 1016.49 1015.96 1015.74 1015.47 1015.12 1014.82 1014.50 1014.09 1013.19 1012.76 1012.25 1011.69 1011.37 1011.37 1011.66 1011.83 1011.51 1011.46 1011.52 1011.64 1011.94 1012.62 1013.68 1015.00 1015.85 1016.67
1011.37 1012.36 1013.18 1013.97 1014.82 1015.65 1016.33 1016.67 1017.28 1017.62 1018.08 1018.93 1018.91 1018.06 1017.16 1016.73 1016.86 1016.88 1016.54 1016.30 1016.08 1015.88 1015.66 1015.15 1014.79 1014.32 1014.10 1013.69 1013.51 1012.42 1011.53 1011.51 1011.72 1011.59 1011.49 1011.49 1011.65 1011.63 1011.74 1012.55 1013.94 1014.94 1015.98 1017.02
1011.23 1012.12 1012.98 1013.69 1014.70 1015.79 1016.59 1017.35 1017.30 1017.31 1017.96 1019.08 1019.36 1018.83 1017.78 1017.18 1017.38 1017.15 1016.60 1016.51 1016.50 1016.33 1015.91 1015.60 1015.28 1015.30 1015.20 1014.56 1013.30 1012.55 1011.95 1011.64 1011.74 1011.41 1011.45 1011.36 1011.53 1011.77 1011.98 1012.70 1013.57 1014.94 1015.91 1016.83
1011.04 1011.91 1012.88 1013.82 1014.76 1015.55 1015.16 1015.62 1015.18 1016.32 1018.13 1019.22 1019.02 1018.70 1018.35 1017.82 1017.46 1017.34 1016.98 1017.18 1016.92 1016.63 1016.24 1015.69 1015.59 1015.41 1015.38 1014.36 1013.05 1012.85 1012.08 1011.74 1011.32 1011.09 1011.22 1011.01 1010.88 1010.98 1011.95 1012.88 1013.68 1015.22 1016.27 1016.84
1010.81 1011.81 1012.85 1013.86 1014.84 1015.83 1015.70 1015.29 1014.98 1016.01 1018.07 1019.36 1018.46 1017.97 1018.38 1018.10 1017.48 1017.69 1017.61 1017.56 1017.32 1017.00 1016.37 1015.67 1015.32 1015.07 1014.64 1012.98 1012.10 1011.95 1011.96 1011.83 1010.96 1010.31 1010.49 1010.61 1010.70 1010.75 1011.47 1012.59 1014.09 1015.59 1016.38 1017.12
1010.67 1011.77 1012.92 1014.30 1014.96 1014.72 1014.57 1015.52 1015.88 1015.85 1017.36 1017.63 1017.18 1016.25 1016.96 1017.88 1017.61 1017.55 1017.74 1017.60 1017.45 1016.93 1015.94 1015.45 1015.46 1014.48 1012.72 1011.42 1011.36 1011.22 1011.13 1010.29 1010.08 1010.30 1010.26 1010.22 1010.29 1010.53 1011.04 1012.45 1013.97 1015.23 1016.33 1017.53
1010.77 1012.34 1013.33 1013.27 1013.16 1013.68 1014.68 1015.85 1016.26 1016.29 1015.88 1015.90 1015.41 1015.00 1016.06 1016.67 1017.05 1017.51 1017.84 1017.64 1017.14 1016.09 1014.97 1014.74 1013.84 1012.13 1011.57 1011.29 1010.80 1010.26 1009.79 1009.62 1009.77 1009.58 1009.43 1009.59 1009.77 1010.07 1010.43 1011.66 1013.52 1014.78 1016.24 1017.71
1010.54 1011.38 1012.23 1012.56 1012.88 1013.98 1014.74 1015.25 1015.35 1015.12 1014.79 1014.18 1013.11 1013.78 1014.98 1015.67 1016.00 1016.73 1016.86 1016.68 1015.96 1015.08 1013.91 1013.55 1011.89 1010.19 1010.06 1010.19 1009.46 1008.65 1008.86 1009.10 1009.19 1009.22 1009.05 1009.11 1009.29 1009.61 1010.37 1011.78 1013.32 1014.67 1016.17 1017.72
1009.86 1010.54 1011.31 1012.45 1012.72 1013.32 1013.34 1013.10 1013.07 1013.25 1013.03 1011.98 1011.14 1011.37 1013.09 1014.60 1015.14 1015.74 1016.59 1015.88 1015.07 1013.64 1012.62 1012.52 1010.09 1009.26 1008.94 1007.94 1007.95 1007.86 1007.85 1007.93 1007.99 1007.94 1007.93 1008.12 1008.48 1009.10 1010.28 1011.66 1013.17 1014.68 1016.22 1017.88
1009.73 1009.77 1010.75 1011.16 1011.24 1011.00 1010.26 1009.79 1010.00 1009.88 1009.71 1009.28 1009.73 1010.98 1012.35 1013.70 1014.22 1014.66 1015.03 1014.58 1013.61 1013.03 1012.34 1010.26 1008.76 1008.40 1007.87 1007.56 1007.17 1006.98 1006.90 1007.00 1007.42 1007.61 1007.49 1007.56 1008.08 1009.16 1010.35 1011.76 1013.27 1014.85 1016.58 1018.02
1008.34 1008.62 1008.77 1008.17 1007.94 1007.62 1006.88 1006.73 1006.99 1007.05 1007.49 1008.17 1008.89 1010.37 1011.63 1012.29 1013.10 1013.60 1013.29 1012.75 1012.16 1011.04 1009.09 1008.11 1008.02 1007.66 1007.20 1007.03 1006.84 1006.84 1006.76 1006.77 1007.19 1007.65 1007.62 1007.64 1008.22 1009.61 1010.89 1012.26 1013.69 1015.33 1017.13 1018.62
1007.47 1007.51 1006.47 1006.40 1005.47 1005.41 1004.72 1004.80 1005.40 1005.67 1006.49 1007.25 1008.68 1010.06 1010.69 1011.35 1011.88 1011.68 1011.35 1010.98 1009.85 1008.10 1007.37 1007.33 1006.50 1006.39 1006.12 1005.92 1005.88 1006.21 1006.59 1007.09 1007.63 1008.01 1008.44 1009.15 1009.62 1010.67 1012.19 1013.29 1014.59 1016.32 1017.97 1019.46
1006.24 1005.70 1004.27 1004.33 1004.14 1004.10 1004.07 1003.83 1004.08 1004.69 1005.60 1006.79 1008.25 1009.43 1010.18 1010.25 1010.07 1009.77 1009.27 1008.80 1007.52 1006.48 1005.66 1005.56 1005.54 1005.45 1005.29 1005.20 1005.82 1006.51 1006.95 1007.43 1008.23 1008.76 1009.53 1010.45 1011.30 1012.25 1013.31 1014.41 1015.97 1017.37 1018.49 1019.89
1004.59 1003.81 1003.19 1002.67 1002.88 1002.91 1003.18 1003.16 1003.25 1003.88 1004.60 1005.71 1006.77 1007.98 1008.29 1008.62 1008.48 1007.82 1007.15 1006.66 1005.24 1005.50 1005.27 1004.98 1004.74 1004.91 1004.92 1005.65 1006.56 1007.22 1007.55 1008.03 1008.52 1009.57 1010.51 1011.54 1012.31 1013.21 1014.30 1015.53 1017.00 1017.94 1019.15 1020.16
Thickness
5519 5523 5527 5532 5536 5540 5540 5558 5561 5573 5573 5568 5579 5586 5605 5603 5608 5611 5613 5615 5616 5624 5634 5639 5649 5639 5626 5641 5651 5653 5652 5649 5642 5651 5664 5667 5663 5654 5654 5622 5620 5619 5606 5604
5508 5512 5515 5521 5525 5531 5540 5552 5559 5564 5568 5571 5571 5589 5598 5601 5605 5602 5600 5600 5609 5617 5612 5618 5631 5633 5633 5640 5641 5630 5640 5633 5618 5634 5643 5649 5643 5650 5648 5640 5627 5605 5592 5609
5498 5501 5504 5508 5514 5522 5528 5549 5541 5546 5559 5574 5579 5577 5590 5590 5602 5600 5596 5599 5603 5599 5602 5612 5609 5616 5621 5630 5631 5615 5623 5628 5621 5606 5617 5617 5617 5628 5634 5631 5603 5602 5606 5615
5487 5489 5492 5495 5500 5506 5510 5537 5555 5555 5547 5562 5569 5582 5591 5584 5582 5591 5599 5597 5601 5606 5596 5598 5604 5615 5616 5619 5609 5623 5621 5609 5618 5624 5627 5618 5621 5623 5626 5619 5623 5606 5615 5619
5474 5481 5486 5486 5488 5492 5501 5525 5538 5553 5556 5556 5563 5570 5583 5586 5586 5586 5586 5590 5599 5600 5597 5601 5593 5600 5600 5595 5604 5611 5611 5600 5605 5576 5610 5610 5613 5625 5626 5626 5626 5623 5623 5621
5467 5467 5472 5473 5476 5478 5500 5516 5531 5541 5544 5550 5557 5569 5578 5584 5590 5586 5591 5591 5587 5590 5598 5598 5596 5600 5603 5602 5601 5598 5596 5591 5586 5585 5602 5607 5606 5617 5621 5626 5630 5630 5615 5616
5455 5459 5461 5463 5465 5471 5493 5504 5512 5523 5532 5546 5554 5562 5569 5575 5583 5581 5584 5584 5579 5594 5594 5594 5594 5593 5594 5597 5598 5599 5588 5583 5576 5570 5581 5569 5613 5632 5633 5623 5629 5631 5625 5610
5443 5446 5449 5451 5456 5461 5473 5489 5498 5509 5522 5540 5550 5551 5557 5565 5573 5572 5571 5576 5575 5580 5575 5558 5564 5570 5574 5587 5590 5591 5592 5579 5554 5553 5572 5593 5610 5625 5621 5616 5615 5615 5609 5597
5433 5438 5441 5443 5446 5451 5453 5466 5476 5494 5508 5526 5541 5547 5553 5553 5556 5561 5569 5567 5572 5571 5566 5560 5550 5560 5574 5583 5586 5586 5574 5571 5554 5548 5555 5564 5610 5616 5620 5613 5586 5597 5586 5580
5423 5426 5430 5434 5436 5438 5445 5452 5458 5470 5492 5511 5521 5525 5536 5551 5554 5553 5554 5555 5552 5559 5550 5546 5548 5558 5585 5574 5569 5563 5555 5547 5542 5541 5548 5569 5606 5605 5606 5574 5578 5584 5579 5574
5414 5417 5419 5422 5424 5430 5434 5442 5443 5451 5472 5489 5502 5507 5509 5522 5542 5539 5548 5537 5536 5538 5533 5539 5550 5556 5572 5575 5585 5565 5558 5548 5544 5536 5535 5548 5599 5596 5577 5580 5579 5577 5572 5568
5406 5408 5409 5410 5414 5420 5423 5428 5431 5435 5446 5453 5471 5485 5491 5497 5506 5512 5532 5541 5539 5541 5533 5543 5548 5551 5566 5570 5563 5586 5561 5575 5565 5563 5564 5587 5593 5588 5584 5579 5570 5568 5564 5557
5398 5398 5399 5400 5405 5409 5415 5416 5419 5422 5420 5433 5450 5471 5475 5481 5491 5499 5504 5523 5525 5536 5545 5537 5544 5544 5563 5557 5566 5575 5584 5591 5572 5575 5585 5589 5583 5584 5581 5579 5572 5562 5554 5544
5389 5390 5389 5391 5395 5400 5404 5409 5408 5412 5413 5414 5433 5450 5459 5470 5476 5482 5492 5501 5508 5515 5522 5525 5530 5534 5555 5553 5563 5566 5573 5576 5570 5566 5580 5581 5578 5577 5575 5568 5561 5547 5540 5532
5383 5384 5386 5386 5386 5387 5390 5394 5399 5405 5410 5411 5417 5430 5445 5456 5462 5470 5479 5487 5495 5499 5504 5512 5518 5531 5534 5540 5539 5546 5565 5562 5554 5555 5571 5568 5566 5570 5571 5560 5546 5539 5529 5519
5377 5378 5379 5379 5377 5374 5376 5379 5394 5403 5401 5395 5403 5408 5426 5442 5447 5457 5469 5475 5480 5485 5491 5497 5506 5511 5513 5515 5528 5546 5555 5558 5556 5559 5563 5563 5561 5560 5558 5549 5543 5533 5522 5514
5368 5371 5371 5371 5368 5369 5386 5393 5408 5400 5387 5378 5393 5406 5412 5426 5438 5445 5456 5459 5467 5474 5479 5487 5494 5499 5500 5509 5522 5536 5543 5546 5555 5559 5555 5552 5557 5554 5547 5541 5535 5521 5512 5507
5361 5362 5362 5362 5361 5359 5368 5384 5394 5389 5379 5371 5389 5406 5406 5412 5427 5431 5440 5443 5451 5457 5467 5481 5487 5494 5497 5511 5531 5532 5533 5537 5546 5554 5553 5550 5551 5551 5544 5537 5522 5506 5501 5494
5355 5355 5352 5345 5345 5359 5375 5371 5377 5383 5377 5374 5384 5418 5418 5405 5419 5425 5428 5435 5434 5450 5460 5471 5475 5485 5499 5526 5526 5526 5531 5539 5541 5540 5543 5546 5544 5543 5538 5529 5515 5502 5495 5481
5345 5335 5332 5336 5354 5366 5363 5357 5359 5364 5372 5383 5399 5420 5407 5413 5413 5413 5418 5423 5429 5441 5463 5469 5475 5496 5512 5515 5520 5528 5532 5535 5534 5535 5538 5539 5538 5537 5536 5527 5510 5499 5486 5471
5332 5327 5330 5349 5356 5352 5345 5344 5352 5358 5367 5385 5420 5421 5406 5418 5416 5411 5422 5423 5436 5439 5463 5466 5485 5506 5508 5513 5518 5526 5526 5528 5529 5530 5534 5536 5536 5532 5524 5515 5502 5491 5477 5462
5334 5340 5347 5344 5344 5337 5347 5356 5360 5364 5378 5407 5430 5439 5425 5416 5419 5417 5409 5420 5434 5445 5470 5460 5483 5507 5511 5521 5523 5525 5524 5525 5527 5531 5533 5534 5533 5529 5518 5506 5494 5482 5469 5453
5336 5342 5340 5338 5340 5350 5358 5365 5374 5393 5412 5433 5436 5422 5420 5413 5418 5414 5416 5416 5425 5448 5442 5467 5495 5502 5508 5511 5517 5520 5525 5524 5521 5522 5527 5528 5525 5519 5510 5498 5486 5474 5457 5444
5339 5339 5349 5354 5357 5369 5396 5409 5419 5434 5436 5438 5438 5425 5417 5422 5413 5411 5417 5427 5439 5442 5471 5481 5486 5494 5500 5503 5506 5508 5511 5514 5513 5510 5514 5517 5513 5504 5494 5481 5471 5456 5441 5428
5341 5353 5363 5365 5397 5405 5425 5437 5437 5440 5440 5441 5429 5418 5422 5417 5409 5422 5425 5424 5432 5468 5479 5480 5486 5494 5495 5501 5506 5507 5505 5498 5495 5498 5492 5480 5480 5474 5462 5456 5453 5438 5422 5412
5347 5357 5389 5394 5406 5408 5418 5431 5435 5439 5438 5433 5419 5398 5397 5400 5418 5414 5420 5427 5448 5478 5478 5480 5487 5493 5498 5504 5499 5495 5493 5491 5484 5480 5472 5465 5458 5452 5447 5445 5431 5417 5411 5399
5357 5369 5392 5408 5415 5416 5419 5431 5436 5439 5433 5416 5418 5399 5403 5413 5406 5423 5441 5447 5471 5473 5477 5482 5488 5488 5492 5489 5482 5474 5476 5475 5474 5464 5457 5448 5446 5441 5435 5425 5412 5409 5398 5388